"Time","Temp","Dewpoint","Humidity","Pressure","Direction","Speed","Gust","Precip","PrecipRate"
"00:04:56","56.8","55.4","95","30.12","35","0","0","0.00","0.00"
"00:09:56","56.8","55.4","95","30.12","35","0","0","0.00","0.00"
"00:14:59","56.8","55.3","94.6","30.12","35","0","0","0.00","0.00"
"00:19:57","56.8","55.1","94.2","30.11","35","0","0","0.00","0.00"
"00:24:58","56.8","55.2","94.3","30.11","35","0","0","0.00","0.00"
"00:29:59","56.8","55.2","94.2","30.11","35","0","0","0.00","0.00"
"00:34:56","56.9","55.4","94.8","30.11","35","0","0","0.00","0.00"
"00:39:56","56.9","55.5","95","30.11","35","0","0","0.00","0.00"
"00:44:57","57","55.6","95","30.11","35","0","0","0.00","0.00"
"00:49:59","57","55.6","95","30.11","35","0","0","0.00","0.00"
"00:54:56","57.1","55.7","95","30.11","35","0","0","0.00","0.00"
"00:59:57","57.1","55.7","95","30.11","35","0","0","0.00","0.00"
"01:04:58","57.1","55.7","95","30.10","35","0","0","0.00","0.00"
"01:09:56","57.1","55.7","95","30.10","35","0","0","0.00","0.00"
"01:14:57","57.2","55.8","95","30.10","35","0","0","0.00","0.00"
"01:19:58","57.2","55.8","95","30.10","35","0","0","0.00","0.00"
"01:24:59","57.3","55.9","95","30.10","35","0","0","0.00","0.00"
"01:29:56","57.3","55.9","95","30.10","35","0","0","0.00","0.00"
"01:34:57","57.4","55.9","94.7","30.10","35","0","0","0.00","0.00"
"01:39:57","57.4","55.7","94","30.10","35","0","0","0.00","0.00"
"01:44:58","57.4","55.7","94","30.10","35","0","0","0.00","0.00"
"01:49:56","57.4","55.7","94","30.10","35","0","0","0.00","0.00"
"01:54:57","57.3","55.6","94","30.10","35","0","0","0.00","0.00"
"01:59:58","57.3","55.6","94","30.10","35","0","0","0.00","0.00"
"02:04:59","57.3","55.6","94","30.10","35","0","0","0.00","0.00"
"02:09:57","57.4","56","95","30.10","35","0","0","0.00","0.00"
"02:14:57","57.4","56","95","30.10","35","0","0","0.00","0.00"
"02:19:58","57.5","56.1","95","30.10","35","0","0","0.00","0.00"
"02:24:59","57.5","56.1","95","30.10","35","0","0","0.00","0.00"
"02:29:56","57.6","56.1","94.6","30.10","35","0","0","0.00","0.00"
"02:34:58","57.6","56","94.5","30.10","35","0","0","0.00","0.00"
"02:39:57","57.6","56.2","95","30.10","35","0","0","0.00","0.00"
"02:44:58","57.6","56.2","94.8","30.10","35","0","0","0.00","0.00"
"02:49:59","57.7","56.1","94.4","30.10","35","0","0","0.00","0.00"
"02:54:56","57.7","56","94","30.10","35","0","0","0.00","0.00"
"02:59:57","57.7","56","94","30.10","35","0","0","0.00","0.00"
"03:04:58","57.7","56","94","30.10","35","0","0","0.00","0.00"
"03:09:57","57.7","56","94","30.10","35","0","0","0.00","0.00"
"03:14:56","57.7","56","94","30.10","35","0","0","0.00","0.00"
"03:19:57","57.7","56","94","30.10","35","0","0","0.00","0.00"
"03:24:58","57.7","56","94","30.10","35","0","0","0.00","0.00"
"03:29:59","57.7","56","94","30.10","35","0","0","0.00","0.00"
"03:34:56","57.7","56","94","30.09","35","0","0","0.00","0.00"
"03:39:59","57.7","56","94","30.09","35","0","0","0.00","0.00"
"03:44:56","57.7","56","94","30.09","35","0","0","0.00","0.00"
"03:49:57","57.7","56","94","30.09","35","0","0","0.00","0.00"
"03:54:58","57.6","55.9","94","30.09","35","0","0","0.00","0.00"
"03:59:59","57.6","55.9","94","30.09","35","0","0","0.00","0.00"
"04:04:56","57.5","55.8","94","30.09","35","0","0","0.00","0.00"
"04:09:58","57.5","56","94.5","30.09","35","0","0","0.00","0.00"
"04:14:57","57.5","56.1","95","30.09","35","0","0","0.00","0.00"
"04:19:58","57.6","56.2","95","30.09","35","0","0","0.00","0.00"
"04:24:59","57.6","56.2","95","30.09","35","0","0","0.00","0.00"
"04:29:56","57.6","56.2","95","30.09","35","0","0","0.00","0.00"
"04:34:57","57.6","56.2","95","30.08","35","0","0","0.00","0.00"
"04:39:57","57.6","56.2","95","30.08","35","0","0","0.00","0.00"
"04:44:58","57.6","56.2","95","30.09","35","0","0","0.00","0.00"
"04:49:59","57.7","56.3","95","30.09","35","0.3","2.4","0.00","0.00"
"04:54:56","57.7","56.3","95","30.09","35","0","0","0.00","0.00"
"04:59:57","57.7","56.3","95","30.09","35","0","0","0.00","0.00"
"05:04:58","57.7","56.3","95","30.09","35","0","0","0.00","0.00"
"05:09:56","57.7","56.3","95","30.09","35","0","0","0.00","0.00"
"05:14:56","57.7","56.3","95","30.09","35","0","0","0.00","0.00"
"05:19:57","57.7","56.3","95","30.09","35","0","0","0.00","0.00"
"05:24:58","57.8","56.4","95","30.09","35","0","0","0.00","0.00"
"05:29:59","57.8","56.4","95","30.09","35","0","0","0.00","0.00"
"05:34:56","57.8","56.4","95","30.09","35","0","0","0.00","0.00"
"05:39:56","57.8","56.4","95","30.09","35","0","0","0.00","0.00"
"05:44:58","57.8","56.4","95","30.10","35","0","0","0.00","0.00"
"05:49:59","57.8","56.4","95","30.10","35","0","0","0.00","0.00"
"05:54:56","57.8","56.4","95","30.10","35","0.3","3.6","0.00","0.00"
"05:59:57","57.8","56.4","95","30.10","35","0.5","3.5","0.00","0.00"
"06:04:58","58","56.3","94.2","30.10","35","0.1","1.2","0.00","0.00"
"06:09:57","58","56.3","94","30.10","35","0","1.2","0.00","0.00"
"06:14:56","58.2","56.5","94","30.10","35","0.1","1.2","0.00","0.00"
"06:19:57","58.2","56.5","94","30.10","35","0.1","1.2","0.00","0.00"
"06:24:58","58.2","56.5","94","30.10","35","0","0","0.00","0.00"
"06:29:59","58.2","56.5","94","30.10","35","0","0","0.00","0.00"
"06:34:56","58.2","56.5","94","30.10","35","0.3","2.4","0.00","0.00"
"06:39:59","58.3","56.6","94","30.10","35","0.2","1.2","0.00","0.00"
"06:44:57","58.3","56.6","94","30.10","35","0.1","2.4","0.00","0.00"
"06:49:58","58.4","56.7","94","30.10","35","0.1","2.3","0.00","0.00"
"06:54:59","58.4","56.4","93.1","30.10","35","0","0","0.00","0.00"
"06:59:57","58.5","56.5","93","30.10","36","0","0","0.00","0.00"
"07:04:58","58.4","56.4","93","30.10","35","0.2","2.4","0.00","0.00"
"07:09:56","58.4","56.4","93","30.10","35","0","1.2","0.00","0.00"
"07:14:59","58.4","56.5","93.2","30.10","35","0","0","0.00","0.00"
"07:19:56","58.4","56.5","93.3","30.10","35","0","0","0.00","0.00"
"07:24:57","58.4","56.4","93","30.10","35","0","0","0.00","0.00"
"07:29:59","58.5","56.5","93","30.10","35","0","0","0.00","0.00"
"07:34:56","58.5","56.5","93","30.10","35","0","0","0.00","0.00"
"07:39:59","58.5","56.5","93","30.10","35","0","0","0.00","0.00"
"07:44:57","58.5","56.5","93","30.10","35","0","0","0.00","0.00"
"07:49:58","58.5","56.5","93","30.10","36","0","0","0.00","0.00"
"07:54:59","58.3","56.2","92.7","30.10","35","0","0","0.00","0.00"
"07:59:57","58.2","56","92.5","30.10","36","0","0","0.00","0.00"
"08:04:58","58","56","93","30.10","35","0","0","0.00","0.00"
"08:09:56","57.9","55.9","93","30.10","35","0","0","0.00","0.00"
"08:14:59","57.8","55.8","93","30.10","36","0","0","0.00","0.00"
"08:19:59","57.7","55.7","93","30.10","35","0","0","0.00","0.00"
"08:24:56","57.7","55.7","93","30.10","35","0","0","0.00","0.00"
"08:29:57","57.6","55.7","93.2","30.10","35","0","0","0.00","0.00"
"08:34:58","57.7","56","94","30.10","35","0","0","0.00","0.00"
"08:39:56","57.8","56.1","94","30.10","35","0","0","0.00","0.00"
"08:44:57","58.1","56.5","94.2","30.10","42","0","1.2","0.00","0.00"
"08:49:59","58.6","56.9","94.2","30.10","42","0.1","2.4","0.00","0.00"
"08:54:56","58.9","57","93.2","30.10","42","0.2","1.2","0.00","0.00"
"08:59:56","59.3","57.2","92.7","30.11","42","0","0","0.00","0.00"
"09:04:57","59.7","57.4","91.9","30.11","42","0","0","0.00","0.00"
"09:09:59","59.9","57.3","91","30.11","42","0","2.4","0.00","0.00"
"09:14:58","60.1","57.5","91","30.11","42","0.2","2.3","0.00","0.00"
"09:19:58","60.6","58","91","30.11","42","0","0","0.00","0.00"
"09:24:59","61.3","58.3","90","30.11","42","0","1.2","0.00","0.00"
"09:29:59","61.7","58.1","88.2","30.11","42","0.1","2.4","0.00","0.00"
"09:34:56","61.9","58.3","87.9","30.11","42","0","0","0.00","0.00"
"09:39:58","61.9","58.1","87.6","30.11","42","0","0","0.00","0.00"
"09:44:59","61.8","58","87.4","30.11","42","0","0","0.00","0.00"
"09:49:59","61.7","58","87.9","30.11","42","0","0","0.00","0.00"
"09:54:56","61.6","58","88","30.11","42","0","0","0.00","0.00"
"09:59:57","61.6","58","87.8","30.11","42","0","0","0.00","0.00"
"10:04:58","61.7","58.2","88.2","30.11","42","0","0","0.00","0.00"
"10:09:56","61.7","58.1","87.9","30.11","42","0","0","0.00","0.00"
"10:14:59","61.9","58.4","88.4","30.11","42","0","0","0.00","0.00"
"10:19:59","62.1","58.5","88","30.10","111","0","1.2","0.00","0.00"
"10:24:56","62.4","58.8","88","30.10","147","0.1","2.4","0.00","0.00"
"10:29:56","62.6","58.6","86.6","30.10","187","2.4","4.8","0.00","0.00"
"10:34:56","62.6","58.4","86","30.10","186","1.2","3.5","0.00","0.00"
"10:39:59","62.7","58.5","86","30.10","186","0.2","2.4","0.00","0.00"
"10:44:56","62.7","58.5","86","30.10","186","0.7","2.4","0.00","0.00"
"10:49:56","62.7","58.5","86","30.10","186","0.4","2.4","0.00","0.00"
"10:54:57","62.7","58.5","86","30.10","182","1.2","3.6","0.00","0.00"
"10:59:57","62.7","58.5","86.2","30.10","178","1.4","3.6","0.00","0.00"
"11:04:58","62.6","58.2","85.7","30.10","152","2","4.8","0.00","0.00"
"11:09:56","62.5","58.3","86","30.10","126","0.9","3.6","0.00","0.00"
"11:14:58","62.6","58.5","86.3","30.10","127","0.7","3.6","0.00","0.00"
"11:19:59","62.6","58.4","86","30.10","126","1.7","4.8","0.00","0.00"
"11:24:59","62.6","58.4","86.1","30.10","126","0.6","2.4","0.00","0.00"
"11:29:56","62.6","58.4","85.9","30.10","125","1.7","6","0.00","0.00"
"11:34:56","62.6","58.3","85.8","30.10","125","0.4","2.4","0.00","0.00"
"11:39:59","62.6","58.3","85.8","30.10","124","2.2","4.8","0.00","0.00"
"11:44:59","62.7","58.5","86","30.10","126","1","4.8","0.00","0.00"
"11:49:56","62.8","58.5","85.7","30.09","130","1.8","4.8","0.00","0.00"
"11:54:57","62.9","58.4","85.4","30.09","129","1.1","4.8","0.00","0.00"
"11:59:57","63.2","58.9","86","30.09","171","1.4","4.8","0.00","0.00"
"12:04:58","63.4","58.6","84.6","30.09","171","0.9","3.6","0.00","0.00"
"12:09:56","63.3","58.6","84.5","30.09","169","0.7","3.6","0.00","0.00"
"12:14:59","63.3","58.6","84.7","30.09","169","1.3","3.6","0.00","0.00"
"12:19:59","63.3","58.5","84.5","30.09","173","2","4.8","0.00","0.00"
"12:24:56","63.3","58.6","84.7","30.09","126","2.3","4.8","0.00","0.00"
"12:29:56","63.2","58.3","84.2","30.09","117","2","4.8","0.00","0.00"
"12:34:57","63.2","58.3","84","30.09","119","1.1","4.6","0.00","0.00"
"12:39:59","63.3","58.4","84","30.09","119","0.4","2.4","0.00","0.00"
"12:44:56","63.4","58.6","84.2","30.09","119","0.2","3.6","0.00","0.00"
"12:49:57","63.6","58.7","84.2","30.09","119","1","2.4","0.00","0.00"
"12:54:57","63.6","58.5","83.5","30.09","119","1.6","3.6","0.00","0.00"
"12:59:58","63.6","58.8","84.2","30.09","119","1.4","3.6","0.00","0.00"
"13:04:58","63.6","58.5","83.4","30.08","119","1.5","4.8","0.00","0.00"
"13:09:56","63.7","58.8","84.1","30.08","120","1.9","4.8","0.00","0.00"
"13:14:59","63.8","58.8","83.8","30.08","145","2.6","6","0.00","0.00"
"13:19:56","63.9","58.8","83.5","30.07","189","2.8","6","0.00","0.00"
"13:24:56","63.9","59.1","84.2","30.07","195","2.5","4.8","0.00","0.00"
"13:29:57","64","58.8","83.4","30.07","196","2.7","4.8","0.00","0.00"
"13:34:57","64","58.7","82.8","30.06","196","0.9","3.6","0.00","0.00"
"13:39:57","64.1","58.9","83.3","30.06","196","0.8","3.6","0.00","0.00"
"13:44:58","64.1","58.7","82.7","30.06","187","3.2","7.2","0.00","0.00"
"13:49:58","64.1","58.7","82.6","30.06","188","2.5","6","0.00","0.00"
"13:54:58","63.9","58.5","82.7","30.06","185","0.5","2.4","0.00","0.00"
"13:59:59","64.1","59.1","83.8","30.06","184","1.4","3.6","0.00","0.00"
"14:04:56","64.2","59.1","83.5","30.05","184","0.6","2.4","0.00","0.00"
"14:09:58","64.4","59.2","83.2","30.05","134","2","6","0.00","0.00"
"14:14:57","64.4","59.1","82.9","30.05","118","1.8","5.8","0.00","0.00"
"14:19:58","64.5","59.2","82.7","30.04","185","2.2","6","0.00","0.00"
"14:24:59","64.7","59.2","82.4","30.04","196","2.3","4.8","0.00","0.00"
"14:29:59","65.1","59.6","82.7","30.04","195","1.5","3.6","0.00","0.00"
"14:34:56","65.1","59.2","81.2","30.04","124","3.2","6","0.00","0.00"
"14:39:59","64.8","59","81.4","30.04","125","1.1","4.8","0.00","0.00"
"14:44:59","64.8","59.3","82.1","30.04","126","0.5","2.4","0.00","0.00"
"14:49:56","65.3","60","83.1","30.03","124","1.3","4.8","0.00","0.00"
"14:54:57","65.9","60.5","82.7","30.03","122","2.2","4.8","0.00","0.00"
"14:59:58","66.4","60.1","80.2","30.03","119","2.8","4.8","0.00","0.00"
"15:04:58","66.4","60.2","80.5","30.02","118","1.4","3.6","0.00","0.00"
"15:09:56","66.5","59.9","79.5","30.02","134","2.2","4.8","0.00","0.00"
"15:14:59","66.4","59.9","79.7","30.02","184","1.7","6","0.00","0.00"
"15:19:56","66.7","60.2","79.7","30.02","147","2","3.6","0.00","0.00"
"15:24:56","67.1","60.8","80.2","30.02","142","0.9","3.6","0.00","0.00"
"15:29:57","67.6","61","79.4","30.02","140","1.2","3.6","0.00","0.00"
"15:34:58","67.7","60.6","78.1","30.01","136","1.4","4.8","0.00","0.00"
"15:39:57","67.2","60.2","78.2","30.01","74","1.9","6","0.00","0.00"
"15:44:58","66.9","59.8","78.1","30.01","142","2","6","0.00","0.00"
"15:49:58","66.7","59.9","79","30.01","113","2.7","6","0.00","0.00"
"15:54:59","66.4","60","79.8","30.01","102","1.5","4.8","0.00","0.00"
"15:59:56","66.4","60","80","30.01","102","1.7","3.6","0.00","0.00"
"16:04:57","66.2","59.8","80","30.01","107","1.8","4.8","0.00","0.00"
"16:09:59","66.1","59.7","80","30.01","115","2.8","6","0.00","0.00"
"16:14:58","66.1","59.8","80.2","30.01","118","2.9","6","0.00","0.00"
"16:19:58","66.1","59.9","80.3","30.00","89","1.5","3.6","0.00","0.00"
"16:24:59","66.3","60","80.2","30.00","101","2.2","6","0.00","0.00"
"16:29:56","66.5","59.8","79.2","30.00","135","2.4","4.8","0.00","0.00"
"16:34:57","66.5","59.7","78.8","29.99","134","0.6","4.8","0.00","0.00"
"16:39:56","66.6","59.8","78.7","29.99","155","2.5","4.8","0.00","0.00"
"16:44:56","66.6","59.8","78.8","29.99","126","2.4","6","0.00","0.00"
"16:49:57","66.5","60","79.7","29.99","121","1.2","4.6","0.00","0.00"
"16:54:58","66.8","60.1","79.2","29.99","121","2","4.8","0.00","0.00"
"16:59:59","67","60.1","78.7","29.99","105","2.1","7.2","0.00","0.00"
"17:04:59","66.9","59.8","78","29.99","125","2.8","7.2","0.00","0.00"
"17:09:57","66.7","59.9","78.7","29.99","127","1.6","3.6","0.00","0.00"
"17:14:56","66.6","59.8","78.8","29.99","126","2","4.8","0.00","0.00"
"17:19:57","66.4","59.7","79","29.98","123","1.8","4.8","0.00","0.00"
"17:24:58","65.9","59.5","79.8","29.98","120","1.8","7.2","0.00","0.00"
"17:29:59","65.4","59.2","80.3","29.99","93","2.1","3.6","0.00","0.00"
"17:34:59","65.1","59.1","81","29.99","88","1.4","4.8","0.00","0.00"
"17:39:58","64.8","59.1","81.8","29.99","94","1.5","3.6","0.00","0.00"
"17:44:59","64.5","58.9","82.2","29.99","84","1.3","4.8","0.00","0.00"
"17:49:56","64.2","58.9","83","29.98","88","1.4","3.6","0.00","0.00"
"17:54:58","63.8","58.5","83","29.98","96","1.7","3.6","0.00","0.00"
"17:59:59","63.3","58.3","83.7","29.98","96","1.4","3.6","0.00","0.00"
"18:04:56","62.9","58","84","29.98","96","0.8","2.4","0.00","0.00"
"18:09:58","62.6","57.9","84.8","29.98","96","0.7","2.4","0.00","0.00"
"18:14:58","62.2","57.8","85.4","29.98","96","0.2","2.4","0.00","0.00"
"18:19:59","61.9","57.7","86","29.98","96","0.7","3.6","0.00","0.00"
"18:24:56","61.6","57.5","86.2","29.98","96","0.2","2.3","0.00","0.00"
"18:29:57","61.3","57.4","87","29.98","96","0.4","2.4","0.00","0.00"
"18:34:59","61","57.3","87.3","29.98","96","0.3","2.4","0.00","0.00"
"18:39:58","60.8","57.2","88","29.98","96","0.2","2.3","0.00","0.00"
"18:44:56","60.6","57","88","29.98","96","0","0","0.00","0.00"
"18:49:57","60.5","57","88.4","29.98","96","0","0","0.00","0.00"
"18:54:58","60.3","57","89","29.98","96","0","1.2","0.00","0.00"
"18:59:56","60.3","57.3","89.7","29.98","96","0.5","3.6","0.00","0.00"
"19:04:57","60.4","57.5","90","29.98","96","1","2.4","0.00","0.00"
"19:09:59","60.6","57.7","90","29.98","141","2.2","6","0.00","0.00"
"19:14:58","60.7","57.7","90","29.99","122","2.9","6","0.00","0.00"
"19:19:56","60.9","57.6","89","29.99","126","1.5","5.8","0.00","0.00"
"19:24:57","60.9","57.6","89","29.99","146","2.2","6","0.00","0.00"
"19:29:59","60.9","57.6","89","29.99","156","1.9","4.8","0.00","0.00"
"19:34:56","60.9","57.6","89","29.99","154","1.6","4.8","0.00","0.00"
"19:39:59","60.8","57.5","89","29.99","159","2.2","6","0.00","0.00"
"19:44:57","60.7","57.4","89","29.99","135","2.2","5.8","0.00","0.00"
"19:49:58","60.6","57.3","89","29.99","132","2.6","6","0.00","0.00"
"19:54:59","60.5","57.2","89","29.99","138","2.2","6","0.00","0.00"
"19:59:56","60.4","57.1","89","29.99","142","2.2","6","0.00","0.00"
"20:04:57","60.3","57.1","89.2","29.99","123","3","6","0.00","0.00"
"20:09:59","60.2","56.9","89","29.99","148","2.6","6","0.00","0.00"
"20:14:58","60.1","57","89.5","29.99","126","1.6","5.8","0.00","0.00"
"20:19:59","60.1","57.2","90","29.99","127","0.6","2.4","0.00","0.00"
"20:24:57","60.1","57.2","90","29.99","127","1.5","3.6","0.00","0.00"
"20:29:58","60.1","57.2","90","29.99","127","1.2","3.6","0.00","0.00"
"20:34:59","60.1","57.2","90","29.98","127","0.6","2.4","0.00","0.00"
"20:39:58","60.1","57.2","90","29.98","127","0.7","3.6","0.00","0.00"
"20:44:56","60.1","57.2","90","29.98","127","1.5","4.8","0.00","0.00"
"20:49:57","60.1","57.2","90","29.98","126","1.7","4.8","0.00","0.00"
"20:54:58","60.2","57.3","90","29.98","130","1.5","6","0.00","0.00"
"20:59:59","60.2","57.3","90","29.98","148","2","6","0.00","0.00"
"21:04:56","60.2","57.3","90","29.98","146","2.5","6","0.00","0.00"
"21:09:58","60.2","57.3","90","29.98","141","1.8","4.8","0.00","0.00"
"21:14:57","60.2","57.3","90","29.98","137","1.7","4.8","0.00","0.00"
"21:19:59","60.1","57.2","90","29.98","150","1.9","6","0.00","0.00"
"21:24:56","60.1","57.2","90","29.98","122","2.2","6","0.00","0.00"
"21:29:57","60","57.1","90","29.98","116","1.6","4.8","0.00","0.00"
"21:34:58","60","57.1","90","29.98","141","2.6","6","0.00","0.00"
"21:39:57","60","57.1","90","29.98","140","2.9","6","0.00","0.00"
"21:44:58","59.9","57","90","29.98","113","2","4.8","0.00","0.00"
"21:49:55","59.9","57","90","29.98","124","1.6","4.8","0.00","0.00"
"21:54:57","59.9","57","90","29.98","141","2.6","7.2","0.00","0.00"
"21:59:58","59.9","57","90","29.98","128","2.6","6.9","0.00","0.00"
"22:04:59","59.8","56.9","90","29.98","125","1.8","4.8","0.00","0.00"
"22:09:58","59.7","56.8","90","29.98","157","2.5","4.8","0.00","0.00"
"22:14:57","59.7","56.8","90","29.98","138","2.1","6","0.00","0.00"
"22:19:58","59.6","56.7","90","29.97","149","2","4.8","0.00","0.00"
"22:24:59","59.6","56.7","90","29.97","118","3","6","0.00","0.00"
"22:29:57","59.5","56.6","90","29.97","120","2.7","5.8","0.00","0.00"
"22:34:58","59.5","56.6","90","29.97","120","2.4","6","0.00","0.00"
"22:39:57","59.4","56.5","90","29.97","164","2.5","6","0.00","0.00"
"22:44:58","59.3","56.4","90","29.98","155","3.1","8.4","0.00","0.00"
"22:49:59","59.1","56.2","90","29.98","173","2.6","8.4","0.00","0.00"
"22:54:56","58.9","56","90","29.98","146","1.8","4.8","0.00","0.00"
"22:59:57","58.9","56.1","90.4","29.98","154","1.5","6","0.00","0.00"
"23:04:58","58.8","56.2","91","29.98","186","2.2","5.8","0.00","0.00"
"23:09:57","58.7","56.1","91","29.98","191","2.8","6","0.00","0.00"
"23:14:56","58.6","56","91","29.98","132","1.7","6","0.00","0.00"
"23:19:58","58.6","56","91","29.98","126","1.1","3.6","0.00","0.00"
"23:24:59","58.5","55.9","91","29.98","126","0.6","2.4","0.00","0.00"
"23:29:56","58.5","55.9","91","29.98","139","1.8","4.8","0.00","0.00"
"23:34:58","58.4","55.8","91","29.98","127","1.8","4.8","0.00","0.00"
"23:39:57","58.3","55.7","91","29.98","154","1.6","4.8","0.00","0.00"
"23:44:58","58.2","55.8","91.6","29.98","157","1.8","4.6","0.00","0.00"
"23:49:56","58.1","55.8","92","29.97","162","2.1","4.8","0.00","0.00"
"23:54:53","58","55.7","92","29.97","167","2.2","4.8","0.00","0.00"
